Temp_Advection
nan nan nan nan nan nan nan nan nan nan nan nan nan nan nan nan nan nan nan nan nan nan nan nan nan nan nan nan nan nan nan nan nan nan nan nan nan nan nan nan nan nan nan nan
nan -0 -0 0 0 0 -0 -0 -0 0 0 -0 -0 -0 0 0 0 0 0 0 1 -0 -1 -1 -0 0 0 1 2 2 1 1 1 1 1 1 0 1 0 1 1 0 0 nan
nan 0 0 0 -1 -0 -0 0 -0 -0 -0 -0 0 0 1 1 1 0 0 0 0 -0 0 1 1 1 1 2 2 2 1 1 1 1 1 1 0 0 1 1 1 1 1 nan
nan 0 -0 -1 -0 0 0 0 -0 -0 0 1 0 0 1 0 0 0 0 0 0 0 0 0 1 1 1 2 2 2 1 1 1 1 1 1 0 0 1 1 1 1 1 nan
nan -0 -0 -0 -0 -0 0 0 0 0 0 1 1 1 0 1 0 0 0 -0 0 0 -0 -0 0 1 1 2 2 1 1 1 1 1 1 1 0 0 1 1 1 1 1 nan
nan 0 -0 -0 -0 -0 -1 0 0 -0 -0 0 -0 -0 -0 1 0 0 -0 -0 -0 -0 0 0 0 1 1 2 1 0 1 1 2 2 1 1 0 1 1 1 1 1 1 nan
nan 0 -1 -1 -0 1 -0 -0 0 -0 -1 -1 -0 -1 -1 -0 0 -0 -0 -0 -0 -0 0 0 0 0 1 1 0 1 2 2 2 1 1 1 1 2 2 2 1 1 1 nan
nan 0 -1 -1 0 0 -0 -0 0 -0 -0 -0 -1 -0 0 -0 0 -0 -0 0 0 -0 -0 0 0 0 0 0 0 1 1 1 1 2 2 2 2 1 1 1 1 1 1 nan
nan -1 -0 -0 0 -0 -1 -1 -0 -0 -0 -0 -0 0 0 0 -0 -0 0 -0 0 0 0 -0 -0 0 0 1 1 1 1 1 1 2 2 2 1 1 1 0 2 1 1 nan
nan -0 -0 0 0 0 0 0 -0 0 0 0 -0 0 0 0 -0 -0 -0 -0 -0 -0 0 0 0 -0 -0 0 1 2 1 1 2 2 2 1 1 1 -0 1 2 1 1 nan
nan 0 0 0 1 0 0 0 0 0 0 0 0 0 0 -0 -0 -0 -0 -0 -0 -0 -0 -0 -0 -0 0 0 0 1 1 1 1 1 1 0 1 1 -0 2 2 1 2 nan
nan -1 -0 -0 0 0 0 0 0 0 -0 0 0 0 0 0 0 0 0 -0 -0 -0 -0 -0 -0 -1 -1 0 0 0 1 2 2 1 1 0 1 1 1 3 3 2 2 nan
nan -0 -0 -0 1 1 0 0 0 0 0 0 0 0 0 0 0 0 0 0 -0 -0 -0 -0 -0 -0 -1 -1 -0 0 0 1 0 0 2 1 1 2 2 3 3 2 1 nan
nan -1 -0 0 1 1 0 0 0 0 0 0 0 0 0 0 0 0 -0 -0 -0 -0 -0 -0 -0 -0 -0 -0 -0 -0 -0 0 1 1 1 1 1 2 2 3 2 2 2 nan
nan 0 -0 -0 0 0 0 0 -0 0 0 0 0 0 0 0 -0 0 -0 -0 -0 -0 -0 -0 -0 0 0 -0 -0 0 -0 -0 0 0 1 1 1 2 2 3 3 3 3 nan
nan 1 1 1 0 1 0 0 0 -0 0 0 0 0 -0 -0 -0 -0 -0 -0 -0 -0 -0 -0 -0 -0 -0 -0 0 0 0 0 0 0 0 1 1 2 2 3 3 3 2 nan
nan 1 1 0 0 0 1 0 0 0 0 0 0 0 0 0 -0 0 0 -0 -0 -0 -0 -0 -0 -0 -0 -0 -0 -0 0 0 0 0 0 0 1 1 2 3 4 3 1 nan
nan -0 0 0 -0 -0 0 1 0 0 0 0 0 0 0 0 0 -0 -0 -0 0 0 -0 -0 -0 -0 -0 0 0 -0 0 0 0 0 0 0 1 2 2 2 4 2 0 nan
nan 0 0 1 1 0 0 0 0 0 0 0 0 0 0 0 0 0 0 0 -0 -0 -0 -0 -0 -0 -0 -0 0 -0 0 0 0 -0 0 1 1 1 2 2 2 0 0 nan
nan 0 1 1 1 1 0 0 0 0 0 0 0 0 0 0 0 0 0 0 -0 -0 -0 -0 -0 -0 -0 -0 0 0 0 0 0 -0 0 1 1 1 1 1 0 0 0 nan
nan 0 1 1 0 1 1 0 0 0 0 0 0 0 0 0 0 0 -0 -0 0 -0 -0 -0 -0 -0 -0 -0 -0 -0 0 0 -0 -0 0 0 1 1 1 0 0 0 0 nan
nan 1 1 1 0 0 0 0 0 0 0 0 0 0 0 0 0 0 0 0 0 0 -0 -0 -0 -0 -0 -0 0 0 0 0 0 0 0 0 0 0 0 0 0 0 1 nan
nan 1 0 0 0 0 0 0 0 0 0 0 0 0 0 0 0 -0 0 0 0 0 -0 -0 -0 -0 -0 -0 0 -0 -0 0 0 0 0 0 0 0 0 0 0 0 0 nan
nan 0 0 0 0 0 0 0 0 0 0 0 0 0 -0 0 0 -0 -0 -0 0 0 0 -0 -0 -0 -0 -0 -0 -0 -0 -0 -0 -0 -0 0 0 0 0 0 0 0 0 nan
nan 0 0 0 0 0 0 0 0 0 0 0 0 0 0 0 0 0 0 -0 -0 0 0 0 0 -0 -0 -0 -0 0 0 -0 -0 -0 0 0 0 0 0 0 0 0 0 nan
nan 1 0 0 0 0 0 0 0 0 0 0 0 0 0 0 0 0 0 0 -0 -0 0 0 0 0 0 0 0 0 0 0 0 0 0 0 0 0 0 0 0 0 0 nan
nan nan nan nan nan nan nan nan nan nan nan nan nan nan nan nan nan nan nan nan nan nan nan nan nan nan nan nan nan nan nan nan nan nan nan nan nan nan nan nan nan nan nan nan
Wind_Speed
4 6 5 5 2 1 1 3 6 6 9 10 9 8 15 13 22 30 35 41 47 50 51 52 52 51 48 46 44 42 41 41 40 35 31 28 28 24 21 22 19 17 17 17
2 5 8 7 6 5 1 2 3 4 6 7 19 20 14 13 10 10 19 31 41 42 47 51 52 51 49 47 45 43 42 41 39 35 33 31 29 27 24 24 22 20 18 18
5 3 1 6 11 8 3 1 6 7 5 2 5 11 16 14 15 13 9 9 13 18 24 41 49 49 49 46 44 43 43 41 39 37 35 32 31 28 27 26 22 21 20 20
4 4 6 6 8 11 11 12 9 4 8 17 14 13 12 11 12 8 5 4 2 4 12 20 31 43 43 42 42 42 42 39 37 36 34 32 32 31 28 26 25 22 22 21
6 4 4 3 6 9 10 10 9 9 7 20 26 22 11 10 7 6 3 1 4 6 6 11 19 28 36 39 40 40 39 38 36 35 35 33 33 33 29 27 27 25 23 21
3 6 8 7 5 11 6 5 7 14 17 23 16 4 4 10 8 7 6 6 6 8 8 9 16 26 32 36 38 37 37 35 34 34 34 33 33 33 30 29 27 25 24 23
3 3 6 6 5 17 8 7 8 25 27 24 6 9 18 11 4 3 4 6 8 8 8 8 10 17 27 31 33 32 34 33 33 33 33 32 32 32 29 28 27 28 27 25
3 3 7 12 3 11 6 8 17 26 23 22 23 19 13 6 2 2 5 7 8 11 11 9 9 14 20 25 27 31 31 31 32 32 32 32 31 29 27 26 28 31 30 29
10 7 5 10 7 11 25 28 26 27 23 20 19 14 9 4 2 4 6 10 13 13 15 17 18 15 17 18 25 27 29 31 32 32 31 30 28 26 28 30 32 34 33 31
5 5 6 17 17 25 26 24 23 23 22 16 14 9 5 2 1 3 4 6 9 13 16 21 24 26 27 26 25 29 30 30 32 32 28 27 27 27 28 34 37 34 36 35
2 4 11 12 26 27 23 22 24 19 15 14 15 12 7 3 2 3 4 7 10 10 10 11 14 23 30 34 34 34 31 30 29 30 25 25 28 31 31 34 33 31 33 32
5 13 13 15 27 26 26 23 19 17 17 12 9 7 4 3 3 2 2 5 6 8 9 11 14 16 16 23 36 37 37 35 31 27 33 28 31 37 41 38 31 30 30 30
8 24 23 26 29 28 26 22 21 18 14 10 7 5 8 9 6 4 2 3 6 10 12 15 15 15 16 18 19 25 37 35 34 38 39 36 38 42 45 40 35 34 33 33
27 28 24 31 27 27 27 24 20 18 15 11 11 10 8 6 4 4 6 10 13 16 19 20 20 19 19 19 19 24 28 32 36 37 41 41 43 45 44 42 40 38 35 31
32 29 29 26 25 23 22 23 20 17 14 11 7 4 3 3 7 9 10 13 16 17 19 21 23 24 25 25 25 23 22 28 30 32 35 40 41 41 41 39 38 37 31 28
24 20 30 32 29 27 24 19 17 16 11 8 3 3 6 7 7 10 12 15 17 17 19 22 23 24 26 26 26 30 30 28 26 29 34 38 40 40 38 37 37 33 31 30
31 30 31 30 29 27 20 17 17 15 11 7 5 5 4 6 8 10 12 15 18 19 21 24 27 28 29 29 29 28 27 28 28 29 29 29 35 36 35 35 31 32 31 25
22 25 24 25 27 25 23 19 15 10 7 6 5 3 6 8 10 12 16 18 20 20 22 25 27 27 27 28 28 27 27 28 26 23 21 22 29 32 32 30 28 28 24 22
19 19 17 21 26 26 23 17 12 10 9 6 5 5 7 9 13 16 18 19 22 26 25 24 25 26 27 27 26 25 24 23 19 18 20 22 24 25 25 22 24 25 22 19
23 20 21 25 24 21 18 14 15 12 8 5 5 7 10 13 15 17 19 20 22 23 23 24 25 26 26 25 23 20 17 15 14 16 18 18 18 18 18 21 20 19 17 16
23 20 23 24 22 18 16 15 12 7 4 7 9 10 11 13 15 17 19 21 19 21 21 22 23 23 22 22 19 14 11 9 11 13 14 14 13 15 13 13 14 13 13 12
24 27 28 25 23 18 15 13 9 6 6 8 10 12 13 14 16 17 18 18 18 18 19 20 19 18 17 18 15 11 7 6 7 10 12 12 8 7 8 9 9 10 10 12
31 31 27 22 17 17 15 10 7 6 7 8 11 12 13 14 16 17 17 16 16 17 16 17 15 13 14 13 10 6 4 3 3 3 1 2 4 5 6 7 8 9 11 13
30 25 20 17 16 16 11 8 7 6 6 8 9 10 12 14 15 16 16 16 16 15 15 14 11 11 11 9 6 3 2 2 2 2 3 2 3 4 5 6 8 10 12 12
23 21 19 19 14 11 10 7 6 5 6 8 11 13 14 16 16 16 14 14 15 15 14 12 10 9 7 6 5 3 1 1 1 1 1 3 4 4 5 7 9 10 11 13
22 20 17 13 13 11 7 8 6 7 10 13 15 16 16 18 18 15 14 14 13 13 12 10 8 7 5 6 5 4 3 3 2 3 4 5 5 7 8 9 10 10 11 12
18 16 15 12 8 6 6 6 9 8 11 15 16 16 16 18 18 17 15 15 14 13 10 9 8 7 7 8 6 5 5 4 4 5 5 6 7 8 9 10 11 11 12 12
Wind_Direction
199 162 162 183 182 111 169 133 205 194 186 191 201 196 197 192 202 208 209 213 217 219 221 223 223 225 227 227 227 228 227 230 234 237 244 244 242 244 248 254 258 261 268 271
249 199 210 228 194 156 292 132 238 111 178 200 217 204 197 209 218 220 218 227 225 223 227 226 226 227 226 229 227 228 229 233 234 237 243 244 242 240 245 251 252 257 265 268
223 181 172 270 217 170 173 43 189 193 175 7 215 194 189 158 160 147 152 200 208 224 240 240 235 232 229 231 226 229 230 233 237 239 243 246 243 240 242 246 250 256 262 265
172 105 223 231 199 207 204 210 189 194 158 198 168 143 146 150 149 143 156 162 135 229 236 244 244 234 229 228 229 230 231 235 240 244 246 248 242 242 245 245 249 255 259 262
148 207 293 265 213 200 183 226 188 185 147 143 130 114 105 117 119 118 97 332 279 273 268 256 248 240 233 232 231 231 235 240 243 247 247 249 245 244 245 245 248 252 257 260
144 166 214 216 231 173 101 239 192 156 154 152 151 123 220 147 131 101 60 15 328 299 283 249 241 238 239 238 237 241 246 251 252 250 254 253 249 246 248 248 251 253 255 259
145 201 283 246 245 161 151 233 183 171 165 161 153 171 150 142 126 64 8 346 339 338 307 292 268 256 245 245 248 259 254 254 254 256 258 256 250 248 249 251 253 254 256 259
101 107 264 205 153 174 191 132 160 150 150 134 133 137 143 133 138 324 318 309 304 299 309 311 281 260 253 255 262 259 256 255 255 257 256 254 253 253 254 257 262 259 257 257
182 197 206 200 149 156 149 146 148 147 148 144 139 135 128 109 325 297 279 292 300 293 282 283 279 275 269 282 264 260 257 256 254 255 253 251 251 252 255 257 262 260 258 258
113 203 175 174 158 156 154 146 148 143 139 141 135 137 135 127 93 15 340 333 309 303 302 275 265 266 266 264 271 259 255 254 256 257 253 254 259 256 259 263 259 256 254 255
183 140 168 180 170 157 149 144 139 141 144 143 142 130 128 89 355 304 315 319 309 315 324 321 292 272 266 264 266 264 259 260 260 256 249 258 277 257 261 265 268 263 262 259
202 176 171 186 183 164 160 156 157 149 133 130 136 130 117 155 181 221 268 296 297 309 321 330 330 326 314 280 264 264 261 257 255 269 260 268 271 254 256 262 265 257 256 252
164 161 163 156 154 159 159 157 150 153 151 147 124 148 158 159 164 179 217 283 307 312 311 309 312 320 331 315 302 280 264 267 271 271 255 259 268 258 254 258 250 244 245 248
169 154 142 158 157 158 153 146 148 141 135 140 148 145 157 176 207 270 306 307 305 306 307 309 308 304 301 299 289 280 273 270 270 268 263 259 273 265 257 257 253 246 247 251
172 174 175 162 153 152 153 150 145 142 150 151 160 190 222 283 311 313 308 308 307 309 311 308 304 303 296 292 288 281 281 279 277 277 270 273 274 265 260 257 250 246 244 248
168 167 159 156 154 155 161 161 164 156 168 165 195 277 300 305 318 312 310 308 310 314 313 307 303 299 298 296 297 282 281 280 278 273 272 272 268 264 260 254 243 242 240 261
150 152 157 158 160 161 166 174 178 176 178 204 236 252 279 309 302 298 300 301 305 310 312 308 306 304 302 301 297 287 284 278 277 277 273 272 265 260 256 253 247 242 256 266
173 172 175 176 167 165 163 164 174 180 179 186 198 255 280 287 293 298 299 304 304 309 311 309 308 307 306 301 296 290 286 284 283 283 280 272 259 253 251 248 246 239 266 266
190 178 182 182 182 181 172 170 179 173 176 191 222 251 277 292 295 298 299 303 312 317 321 317 314 315 314 310 305 298 290 287 285 281 273 263 256 253 253 242 240 248 269 252
169 170 165 166 171 179 173 179 175 168 177 208 255 277 286 288 293 296 299 309 317 315 318 318 319 321 319 313 312 308 298 285 283 276 264 259 257 255 247 252 258 261 250 250
169 171 177 176 171 171 174 168 166 174 213 257 270 276 286 293 298 299 308 314 317 317 319 321 321 323 323 321 321 320 311 292 283 274 269 268 263 267 256 251 246 248 250 254
184 179 174 173 172 169 169 165 175 219 249 264 269 277 289 296 297 301 307 309 313 315 320 322 321 326 330 330 326 326 319 303 280 271 270 271 258 239 237 240 250 256 257 263
174 171 168 169 178 175 170 181 206 246 272 270 276 286 300 303 300 302 301 304 307 311 317 318 316 321 333 333 337 352 1 339 318 310 267 226 209 225 249 258 253 261 270 272
164 166 169 172 173 179 190 211 240 252 247 264 284 296 306 308 302 298 299 301 306 310 311 313 312 322 328 336 347 5 39 72 85 118 156 186 246 262 263 269 271 272 273 273
164 169 174 171 177 195 204 226 218 233 260 280 290 296 305 306 305 299 297 300 308 307 307 312 310 314 318 332 330 318 294 135 113 146 266 264 262 272 282 281 279 279 279 278
172 175 175 187 200 212 221 209 239 270 284 290 297 303 306 304 303 298 296 298 305 304 304 300 293 293 300 309 301 276 245 244 260 275 279 282 284 283 281 278 280 281 282 281
149 158 167 177 192 203 224 261 277 276 289 295 299 303 300 299 297 295 295 297 298 295 295 291 283 273 283 294 284 258 244 248 261 274 280 277 275 275 278 284 287 289 288 284
Height
1479 1479 1482 1484 1485 1485 1484 1485 1496 1490 1487 1491 1492 1489 1486 1490 1491 1494 1497 1500 1502 1504 1507 1510 1514 1517 1522 1525 1528 1531 1535 1537 1540 1544 1547 1548 1549 1551 1552 1552 1554 1554 1552 1552
1492 1478 1479 1480 1479 1479 1480 1482 1486 1485 1490 1485 1484 1485 1486 1487 1489 1491 1493 1496 1498 1500 1503 1504 1507 1510 1514 1517 1522 1525 1528 1531 1535 1538 1539 1540 1541 1543 1545 1546 1548 1548 1548 1547
1494 1479 1479 1488 1476 1473 1472 1473 1479 1488 1477 1479 1482 1481 1484 1485 1487 1489 1491 1493 1496 1497 1498 1500 1501 1504 1507 1511 1516 1519 1522 1526 1529 1530 1531 1532 1534 1535 1536 1538 1541 1542 1542 1542
1496 1488 1498 1470 1458 1461 1470 1471 1469 1470 1473 1476 1476 1482 1484 1486 1485 1487 1488 1491 1493 1493 1495 1495 1496 1499 1504 1509 1512 1514 1516 1519 1523 1524 1525 1526 1527 1528 1530 1531 1533 1535 1536 1536
1488 1492 1475 1461 1457 1460 1465 1466 1461 1464 1468 1473 1477 1480 1485 1486 1486 1488 1490 1491 1492 1492 1493 1494 1496 1498 1501 1504 1506 1508 1510 1512 1515 1516 1517 1519 1519 1520 1522 1523 1525 1527 1529 1530
1492 1484 1483 1459 1447 1449 1454 1474 1456 1459 1466 1470 1475 1488 1486 1486 1487 1488 1489 1490 1490 1490 1491 1491 1492 1494 1496 1498 1501 1503 1505 1507 1509 1511 1511 1511 1513 1514 1516 1517 1518 1521 1522 1523
1485 1484 1468 1446 1443 1449 1473 1469 1450 1454 1460 1466 1471 1471 1478 1481 1484 1484 1485 1487 1487 1488 1488 1490 1491 1493 1494 1496 1497 1498 1501 1504 1505 1505 1505 1505 1506 1508 1511 1513 1514 1515 1517 1517
1475 1475 1469 1441 1442 1451 1447 1448 1449 1454 1459 1465 1468 1471 1476 1478 1482 1482 1484 1486 1487 1486 1487 1488 1489 1491 1493 1493 1494 1495 1496 1497 1498 1499 1499 1500 1503 1505 1508 1509 1510 1509 1509 1511
1443 1447 1433 1434 1433 1439 1442 1445 1451 1454 1460 1463 1468 1472 1476 1478 1481 1482 1482 1485 1485 1484 1485 1486 1486 1485 1486 1487 1487 1488 1489 1490 1490 1490 1491 1492 1495 1497 1500 1502 1499 1502 1504 1506
1432 1428 1429 1433 1436 1438 1443 1445 1450 1453 1458 1463 1466 1471 1474 1477 1480 1481 1482 1482 1483 1482 1482 1481 1481 1481 1481 1482 1481 1481 1481 1482 1484 1486 1487 1489 1492 1489 1490 1489 1488 1490 1494 1497
1425 1421 1427 1430 1433 1435 1442 1446 1450 1454 1457 1461 1464 1467 1472 1475 1477 1479 1478 1479 1480 1479 1478 1477 1477 1476 1476 1477 1477 1476 1475 1475 1476 1478 1478 1481 1479 1481 1480 1479 1481 1483 1486 1489
1421 1412 1419 1424 1429 1434 1439 1444 1448 1451 1456 1460 1462 1465 1469 1472 1474 1475 1475 1476 1476 1477 1475 1474 1474 1473 1473 1471 1471 1469 1469 1469 1469 1472 1473 1470 1471 1471 1471 1472 1474 1476 1478 1480
1403 1410 1416 1421 1427 1432 1436 1441 1444 1449 1454 1457 1460 1463 1467 1468 1468 1470 1470 1471 1472 1472 1472 1470 1468 1469 1469 1467 1466 1464 1464 1465 1465 1461 1461 1462 1461 1461 1463 1464 1467 1469 1470 1471
1402 1407 1416 1421 1426 1431 1435 1439 1443 1447 1451 1454 1459 1462 1463 1465 1466 1466 1466 1468 1468 1468 1468 1466 1465 1464 1463 1461 1459 1457 1456 1455 1454 1452 1453 1454 1453 1453 1455 1456 1457 1459 1461 1464
1401 1405 1411 1419 1424 1429 1433 1437 1441 1444 1449 1454 1457 1458 1460 1462 1462 1464 1463 1462 1463 1463 1462 1460 1459 1458 1457 1455 1452 1451 1449 1447 1447 1446 1445 1445 1444 1444 1445 1448 1450 1453 1456 1458
1400 1403 1407 1413 1420 1425 1430 1435 1439 1443 1448 1450 1453 1455 1458 1457 1456 1460 1459 1459 1459 1458 1457 1454 1452 1452 1450 1447 1444 1443 1442 1440 1439 1438 1437 1435 1435 1436 1439 1440 1442 1446 1449 1450
1397 1403 1407 1412 1417 1422 1427 1431 1438 1441 1442 1446 1448 1452 1452 1452 1456 1458 1458 1457 1456 1455 1452 1448 1445 1443 1441 1437 1435 1434 1431 1429 1428 1427 1426 1427 1428 1429 1430 1432 1435 1439 1442 1445
1397 1401 1405 1409 1415 1420 1426 1430 1436 1438 1439 1442 1444 1446 1449 1452 1453 1454 1454 1453 1451 1450 1447 1442 1439 1435 1431 1428 1426 1424 1423 1421 1419 1418 1419 1419 1421 1423 1424 1426 1429 1434 1437 1439
1394 1401 1406 1411 1415 1420 1423 1429 1433 1433 1437 1440 1443 1445 1446 1447 1448 1449 1448 1447 1444 1440 1438 1435 1432 1428 1424 1421 1418 1416 1415 1414 1413 1413 1413 1415 1418 1420 1422 1424 1427 1429 1432 1434
1393 1398 1404 1410 1415 1418 1421 1426 1428 1430 1435 1439 1442 1443 1445 1445 1445 1444 1442 1441 1439 1436 1432 1429 1425 1422 1419 1415 1412 1410 1409 1409 1409 1410 1411 1413 1415 1417 1419 1421 1423 1426 1427 1429
1391 1397 1404 1409 1413 1417 1421 1424 1427 1431 1434 1437 1440 1442 1442 1442 1441 1440 1438 1436 1435 1432 1429 1425 1421 1418 1415 1412 1410 1406 1405 1406 1407 1409 1410 1411 1413 1414 1416 1418 1420 1422 1424 1425
1389 1395 1403 1408 1412 1418 1420 1421 1426 1430 1432 1435 1437 1438 1438 1436 1435 1435 1433 1432 1430 1427 1424 1421 1418 1415 1413 1410 1408 1405 1404 1405 1406 1407 1408 1409 1410 1412 1414 1416 1417 1419 1420 1422
1388 1395 1403 1409 1414 1417 1418 1421 1425 1428 1431 1433 1434 1434 1433 1433 1432 1431 1430 1427 1424 1423 1419 1415 1414 1413 1411 1410 1408 1405 1404 1405 1405 1405 1407 1409 1410 1412 1413 1414 1415 1416 1417 1418
1391 1396 1401 1407 1413 1416 1418 1420 1423 1425 1428 1429 1430 1430 1429 1428 1429 1427 1426 1424 1421 1418 1415 1412 1411 1410 1409 1409 1407 1405 1405 1405 1406 1406 1408 1409 1410 1411 1412 1413 1413 1414 1414 1415
1390 1397 1401 1406 1410 1415 1417 1418 1421 1423 1425 1426 1426 1426 1427 1427 1425 1423 1421 1419 1417 1415 1412 1409 1409 1408 1407 1407 1406 1406 1405 1405 1406 1407 1408 1409 1409 1410 1411 1411 1411 1411 1411 1411
1391 1396 1400 1405 1410 1413 1416 1418 1419 1420 1421 1423 1423 1423 1422 1422 1420 1419 1417 1415 1412 1411 1409 1408 1407 1407 1406 1405 1405 1405 1404 1404 1405 1406 1407 1408 1408 1408 1409 1409 1409 1408 1408 1407
1392 1395 1400 1405 1410 1412 1413 1413 1415 1417 1417 1417 1418 1419 1419 1418 1416 1414 1412 1411 1409 1409 1407 1405 1405 1405 1404 1404 1404 1403 1403 1403 1404 1405 1406 1406 1406 1407 1406 1406 1406 1405 1405 1404